EW9411 Weather Reports


Display with metric or nautical units.
time (UTC)temp
F
wind
direction
speed
MPH
gust
MPH
rain 1hr
in
rain 24hr
in
rain mn
in
humidity
%
barometer
mb
20260906143444 71 6 2.0 8.0 0.00 0.00 0.00 79 1014.3
20260906143121 71 7 4.0 8.0 0.00 0.00 0.00 77 1014.3
20260906142921 71 4 4.0 8.0 0.00 0.00 0.00 77 1014.2
20260906142619 71 12 3.0 8.0 0.00 0.00 0.00 80 1014.1
20260906142418 70 10 1.0 6.0 0.00 0.00 0.00 79 1014.1
20260906142123 70 12 1.0 6.0 0.00 0.00 0.00 80 1014.0
20260906141924 70 11 3.0 6.0 0.00 0.00 0.00 79 1014.1
20260906141621 70 356 1.0 4.0 0.00 0.00 0.00 82 1014.1
20260906141422 69 356 2.0 4.0 0.00 0.00 0.00 81 1014.1
20260906141125 69 356 2.0 8.0 0.00 0.00 0.00 81 1014.1
20260906140927 69 356 2.0 8.0 0.00 0.00 0.00 81 1014.2
20260906140604 69 356 2.0 8.0 0.00 0.00 0.00 81 1014.2
20260906140405 69 356 5.0 8.0 0.00 0.00 0.00 81 1014.2
20260906140104 69 356 3.0 8.0 0.00 0.00 0.00 82 1014.2
20260906135912 68 360 1.0 8.0 0.00 0.00 0.00 82 1014.2
20260906135609 68 6 4.0 8.0 0.00 0.00 0.00 82 1014.2
20260906135431 68 5 3.0 8.0 0.00 0.00 0.00 82 1014.2
20260906135115 68 3 4.0 8.0 0.00 0.00 0.00 82 1014.2
20260906134915 68 3 3.0 6.0 0.00 0.00 0.00 83 1014.2
20260906134613 68 356 2.0 12.0 0.00 0.00 0.00 82 1014.2
20260906134414 68 356 2.0 13.0 0.00 0.00 0.00 82 1014.2
20260906134112 68 8 5.0 13.0 0.00 0.00 0.00 81 1014.2
20260906133913 68 6 7.0 13.0 0.00 0.00 0.00 81 1014.2
20260906133635 68 11 7.0 12.0 0.00 0.00 0.00 81 1014.1
20260906133444 68 6 6.0 11.0 0.00 0.00 0.00 82 1014.1
20260906133117 68 15 1.0 4.0 0.00 0.00 0.00 83 1014.1
20260906132922 68 15 2.0 4.0 0.00 0.00 0.00 83 1014.1
20260906132617 68 42 2.0 6.0 0.00 0.00 0.00 83 1014.1
20260906132422 68 356 2.0 6.0 0.00 0.00 0.00 83 1014.1
20260906132115 68 356 2.0 6.0 0.00 0.00 0.00 83 1014.1
20260906131926 68 356 3.0 6.0 0.00 0.00 0.00 83 1014.1
20260906131620 68 356 2.0 6.0 0.00 0.00 0.00 84 1014.1
20260906131405 68 4 3.0 6.0 0.00 0.00 0.00 83 1014.1
20260906131129 68 8 3.0 6.0 0.00 0.00 0.00 83 1014.0
20260906130933 68 360 2.0 6.0 0.00 0.00 0.00 84 1014.0
20260906130607 68 356 3.0 6.0 0.00 0.00 0.00 84 1014.1
20260906130411 68 351 3.0 6.0 0.00 0.00 0.00 84 1014.0
20260906130104 68 15 3.0 6.0 0.00 0.00 0.00 85 1014.0
20260906125915 68 15 2.0 9.0 0.00 0.00 0.00 85 1013.9
20260906125608 67 7 2.0 9.0 0.00 0.00 0.00 85 1013.9
20260906125108 67 356 5.0 9.0 0.00 0.00 0.00 85 1013.9
20260906124912 67 15 2.0 5.0 0.00 0.00 0.00 86 1013.9
20260906124606 67 55 4.0 8.0 0.00 0.00 0.00 86 1013.9
20260906124417 67 14 3.0 8.0 0.00 0.00 0.00 86 1013.9
20260906124133 67 8 4.0 8.0 0.00 0.00 0.00 86 1013.9
20260906123915 67 351 4.0 9.0 0.00 0.00 0.00 87 1013.9
20260906123615 66 356 4.0 9.0 0.00 0.00 0.00 87 1013.9
20260906123420 66 356 4.0 9.0 0.00 0.00 0.00 87 1013.9
20260906123114 66 1 5.0 9.0 0.00 0.00 0.00 87 1013.8
20260906122918 66 356 4.0 9.0 0.00 0.00 0.00 88 1013.8
20260906122613 66 7 3.0 9.0 0.00 0.00 0.00 88 1013.8
20260906122424 66 360 4.0 9.0 0.00 0.00 0.00 88 1013.8
20260906122118 66 8 3.0 5.0 0.00 0.00 0.00 89 1013.8
20260906121943 66 8 4.0 5.0 0.00 0.00 0.00 89 1013.7
20260906121642 66 8 4.0 8.0 0.00 0.00 0.00 90 1013.7
20260906121406 65 2 2.0 8.0 0.00 0.00 0.00 90 1013.7
20260906121121 65 2 4.0 8.0 0.00 0.00 0.00 90 1013.7
20260906120905 65 360 5.0 8.0 0.00 0.00 0.00 90 1013.7
20260906120626 65 2 3.0 6.0 0.00 0.00 0.00 91 1013.7
20260906120411 65 2 2.0 4.0 0.00 0.00 0.00 91 1013.6
20260906120105 65 2 2.0 4.0 0.00 0.00 0.00 92 1013.6
20260906115909 64 2 1.0 4.0 0.00 0.00 0.00 92 1013.5
20260906115629 64 2 3.0 5.0 0.00 0.00 0.00 92 1013.5
20260906115415 64 2 2.0 6.0 0.00 0.00 0.00 93 1013.5
20260906115106 64 2 3.0 6.0 0.00 0.00 0.00 93 1013.5
20260906114931 64 2 4.0 6.0 0.00 0.00 0.00 93 1013.5
20260906114604 63 5 3.0 7.0 0.00 0.00 0.00 94 1013.5
20260906114415 63 5 3.0 6.0 0.00 0.00 0.00 94 1013.4
20260906114111 63 6 3.0 6.0 0.00 0.00 0.00 94 1013.3
20260906113932 63 12 3.0 5.0 0.00 0.00 0.00 95 1013.4
20260906113636 63 15 2.0 5.0 0.00 0.00 0.00 95 1013.2
20260906113417 62 15 2.0 5.0 0.00 0.00 0.00 95 1013.2
20260906113115 62 15 3.0 5.0 0.00 0.00 0.00 95 1013.2
20260906112924 62 24 2.0 4.0 0.00 0.00 0.00 95 1013.1
20260906112620 62 24 2.0 4.0 0.00 0.00 0.00 96 1013.1
20260906112441 62 24 2.0 3.0 0.00 0.00 0.00 95 1013.1
20260906112116 61 24 2.0 3.0 0.00 0.00 0.00 96 1013.1
20260906111923 61 24 2.0 3.0 0.00 0.00 0.00 96 1013.1
20260906111621 61 24 2.0 3.0 0.00 0.00 0.00 96 1013.1
20260906111422 61 24 2.0 3.0 0.00 0.00 0.00 96 1013.1
20260906111119 61 24 2.0 3.0 0.00 0.00 0.00 95 1013.0
20260906110927 61 24 1.0 2.0 0.00 0.00 0.00 96 1013.0
20260906110605 61 24 0.0 0.0 0.00 0.00 0.00 96 1013.0
20260906110406 61 24 0.0 0.0 0.00 0.00 0.00 96 1013.0
20260906110103 61 24 0.0 0.0 0.00 0.00 0.00 96 1012.9
20260906105904 60 24 0.0 0.0 0.00 0.00 0.00 96 1012.9
20260906105608 60 24 0.0 0.0 0.00 0.00 0.00 96 1012.9
20260906105409 60 24 0.0 0.0 0.00 0.00 0.00 95 1012.9
20260906105108 60 24 0.0 0.0 0.00 0.00 0.00 95 1012.9
20260906104909 60 24 0.0 0.0 0.00 0.00 0.00 95 1012.9
20260906104607 60 24 0.0 0.0 0.00 0.00 0.00 95 1012.9
20260906104414 60 24 0.0 0.0 0.00 0.00 0.00 95 1012.8
20260906104113 60 24 0.0 0.0 0.00 0.00 0.00 95 1012.8
20260906103935 60 24 0.0 0.0 0.00 0.00 0.00 95 1012.7
20260906103620 60 24 0.0 0.0 0.00 0.00 0.00 95 1012.7
20260906103420 60 24 0.0 0.0 0.00 0.00 0.00 95 1012.7
20260906103119 60 24 0.0 0.0 0.00 0.00 0.00 95 1012.6
20260906102919 60 24 0.0 0.0 0.00 0.00 0.00 95 1012.5
20260906102617 60 24 0.0 2.0 0.00 0.00 0.00 95 1012.6
20260906102417 60 24 0.0 2.0 0.00 0.00 0.00 95 1012.6
20260906102122 60 24 0.0 2.0 0.00 0.00 0.00 95 1012.6
20260906101904 60 24 1.0 2.0 0.00 0.00 0.00 95 1012.5
20260906101621 60 24 0.0 2.0 0.00 0.00 0.00 95 1012.5
20260906101422 61 24 1.0 2.0 0.00 0.00 0.00 95 1012.5
20260906101127 61 24 0.0 2.0 0.00 0.00 0.00 95 1012.5
20260906100927 61 24 0.0 2.0 0.00 0.00 0.00 95 1012.4
20260906100605 61 24 0.0 2.0 0.00 0.00 0.00 94 1012.4
20260906100406 61 24 0.0 2.0 0.00 0.00 0.00 95 1012.4
20260906100104 61 24 1.0 2.0 0.00 0.00 0.00 95 1012.4
20260906095903 61 24 1.0 2.0 0.00 0.00 0.00 95 1012.4
20260906095628 61 24 0.0 2.0 0.00 0.00 0.00 95 1012.3
20260906095430 61 24 0.0 4.0 0.00 0.00 0.00 96 1012.3
20260906095108 61 24 1.0 4.0 0.00 0.00 0.00 95 1012.3
20260906094908 61 24 0.0 4.0 0.00 0.00 0.00 95 1012.3
20260906094613 61 24 1.0 3.0 0.00 0.00 0.00 95 1012.2
20260906094413 61 24 2.0 3.0 0.00 0.00 0.00 95 1012.1
20260906094111 60 24 2.0 3.0 0.00 0.00 0.00 95 1012.2
20260906093911 60 24 0.0 0.0 0.00 0.00 0.00 95 1012.1
20260906093610 60 24 0.0 0.0 0.00 0.00 0.00 95 1012.1
20260906093416 60 24 0.0 0.0 0.00 0.00 0.00 95 1012.1
20260906093114 60 24 0.0 0.0 0.00 0.00 0.00 94 1012.1
20260906092935 60 24 0.0 0.0 0.00 0.00 0.00 94 1012.0
20260906092639 60 24 0.0 0.0 0.00 0.00 0.00 94 1011.9
20260906092419 60 24 0.0 0.0 0.00 0.00 0.00 94 1011.9
20260906092117 61 24 0.0 0.0 0.00 0.00 0.00 94 1011.9
20260906091917 61 24 0.0 0.0 0.00 0.00 0.00 94 1011.9
20260906091603 61 24 0.0 0.0 0.00 0.00 0.00 94 1011.9
20260906091422 61 24 0.0 1.0 0.00 0.00 0.00 94 1011.8
20260906091120 61 24 0.0 2.0 0.00 0.00 0.00 94 1011.8
20260906090921 61 24 0.0 2.0 0.00 0.00 0.00 94 1011.7
20260906090625 61 24 1.0 2.0 0.00 0.00 0.00 94 1011.7
20260906090426 61 24 1.0 2.0 0.00 0.00 0.00 94 1011.6
20260906090104 61 24 1.0 2.0 0.00 0.00 0.00 94 1011.5
20260906085905 61 24 1.0 2.0 0.00 0.00 0.00 94 1011.6
20260906085620 61 24 1.0 2.0 0.00 0.00 0.00 94 1011.5
20260906085426 61 24 0.0 0.0 0.00 0.00 0.00 93 1011.5
20260906085125 61 24 0.0 0.0 0.00 0.00 0.00 93 1011.5
20260906084906 61 24 0.0 1.0 0.00 0.00 0.00 93 1011.6
20260906084604 61 24 0.0 2.0 0.00 0.00 0.00 93 1011.6
20260906084405 61 24 0.0 2.0 0.00 0.00 0.00 93 1011.5
20260906084103 61 24 0.0 2.0 0.00 0.00 0.00 93 1011.6
20260906083905 61 24 1.0 2.0 0.00 0.00 0.00 93 1011.6
20260906083609 61 24 0.0 1.0 0.00 0.00 0.00 93 1011.5
20260906083410 62 24 0.0 0.0 0.00 0.00 0.00 93 1011.6
20260906083107 62 24 0.0 0.0 0.00 0.00 0.00 93 1011.6
20260906082908 62 24 0.0 0.0 0.00 0.00 0.00 93 1011.5
20260906082607 62 24 0.0 2.0 0.00 0.00 0.00 93 1011.5
20260906082414 62 24 0.0 2.0 0.00 0.00 0.00 93 1011.5
20260906082132 62 24 0.0 3.0 0.00 0.00 0.00 93 1011.5
20260906081911 62 24 1.0 3.0 0.00 0.00 0.00 93 1011.5
20260906081615 62 24 1.0 3.0 0.00 0.00 0.00 93 1011.4
20260906081417 62 24 1.0 3.0 0.00 0.00 0.00 93 1011.4
20260906081115 62 24 0.0 0.0 0.00 0.00 0.00 93 1011.4
20260906080916 62 24 0.0 0.0 0.00 0.00 0.00 94 1011.3
20260906080615 62 24 0.0 0.0 0.00 0.00 0.00 93 1011.3
20260906080422 62 24 0.0 0.0 0.00 0.00 0.00 93 1011.3
20260906080120 62 24 0.0 0.0 0.00 0.00 0.00 93 1011.3
20260906075921 62 24 0.0 0.0 0.00 0.00 0.00 93 1011.3
20260906075620 62 24 0.0 0.0 0.00 0.00 0.00 93 1011.3
20260906075429 62 24 0.0 0.0 0.00 0.00 0.00 93 1011.2
20260906075125 62 24 0.0 0.0 0.00 0.00 0.00 92 1011.3
20260906074906 62 24 0.0 0.0 0.00 0.00 0.00 92 1011.3
20260906074604 62 24 0.0 0.0 0.00 0.00 0.00 92 1011.2
20260906074426 62 24 0.0 0.0 0.00 0.00 0.00 92 1011.3
20260906074111 62 24 0.0 0.0 0.00 0.00 0.00 92 1011.3
20260906073910 62 24 0.0 0.0 0.00 0.00 0.00 92 1011.3
20260906073609 62 24 0.0 0.0 0.00 0.00 0.00 92 1011.3
20260906073410 63 24 0.0 0.0 0.00 0.00 0.00 92 1011.3
20260906073106 63 24 0.0 0.0 0.00 0.00 0.00 92 1011.3
20260906072915 63 24 0.0 0.0 0.00 0.00 0.00 91 1011.3
20260906072611 63 24 0.0 0.0 0.00 0.00 0.00 92 1011.4
20260906072432 63 24 0.0 0.0 0.00 0.00 0.00 92 1011.4
20260906072137 63 24 0.0 0.0 0.00 0.00 0.00 91 1011.3
20260906071917 63 24 0.0 0.0 0.00 0.00 0.00 91 1011.3
20260906071638 63 24 0.0 0.0 0.00 0.00 0.00 91 1011.3
20260906071422 63 24 0.0 0.0 0.00 0.00 0.00 91 1011.2
20260906071117 63 24 0.0 0.0 0.00 0.00 0.00 91 1011.2
20260906070922 64 24 0.0 0.0 0.00 0.00 0.00 91 1011.2
20260906070616 64 24 0.0 0.0 0.00 0.00 0.00 91 1011.2
20260906070427 64 24 0.0 0.0 0.00 0.00 0.00 91 1011.2
20260906070105 64 24 0.0 0.0 0.00 0.00 0.00 91 1011.3
20260906065907 64 24 0.0 0.0 0.00 0.00 0.00 91 1011.3
20260906065605 64 24 0.0 0.0 0.00 0.00 0.00 92 1011.2
20260906065405 64 24 0.0 0.0 0.00 0.00 0.00 92 1011.2
20260906065124 64 24 0.0 0.0 0.00 0.00 0.00 91 1011.3
20260906064910 64 24 0.0 0.0 0.00 0.00 0.00 91 1011.3
20260906064607 64 24 0.0 0.0 0.00 0.00 0.00 91 1011.4
20260906064408 64 24 0.0 0.0 0.00 0.00 0.00 91 1011.4
20260906064105 64 24 0.0 0.0 0.00 0.00 0.00 91 1011.4
20260906063906 64 24 0.0 0.0 0.00 0.00 0.00 91 1011.3
20260906063613 64 24 0.0 0.0 0.00 0.00 0.00 91 1011.3
20260906063412 64 24 0.0 0.0 0.00 0.00 0.00 91 1011.3
20260906063127 64 24 0.0 0.0 0.00 0.00 0.00 91 1011.2
20260906062920 64 24 0.0 0.0 0.00 0.00 0.00 91 1011.2
20260906062611 64 24 0.0 0.0 0.00 0.00 0.00 91 1011.2
20260906062437 64 24 0.0 3.0 0.00 0.00 0.00 91 1011.3
20260906062110 64 24 0.0 3.0 0.00 0.00 0.00 91 1011.3
20260906061921 64 24 0.0 3.0 0.00 0.00 0.00 91 1011.3
20260906061616 64 24 1.0 3.0 0.00 0.00 0.00 91 1011.4
20260906061421 64 24 2.0 3.0 0.00 0.00 0.00 91 1011.4
20260906061115 64 24 2.0 2.0 0.00 0.00 0.00 91 1011.5
20260906060927 64 24 1.0 2.0 0.00 0.00 0.00 91 1011.5
20260906060620 64 24 1.0 2.0 0.00 0.00 0.00 91 1011.5
20260906060405 64 24 0.0 2.0 0.00 0.00 0.00 91 1011.5
20260906060119 64 24 0.0 2.0 0.00 0.00 0.00 90 1011.6
20260906055925 64 24 1.0 2.0 0.00 0.00 0.00 90 1011.6
20260906055605 64 24 1.0 2.0 0.00 0.00 0.00 90 1011.6
20260906055410 64 24 0.0 2.0 0.00 0.00 0.00 90 1011.6
20260906055104 65 24 1.0 2.0 0.00 0.00 0.00 90 1011.6
20260906054908 65 24 0.0 2.0 0.00 0.00 0.00 90 1011.6
20260906054629 65 24 0.0 0.0 0.00 0.00 0.00 90 1011.6
20260906054435 65 24 0.0 0.0 0.00 0.00 0.00 90 1011.6
20260906054108 65 24 0.0 2.0 0.00 0.00 0.00 90 1011.6
20260906053940 65 24 0.0 3.0 0.00 0.00 0.00 89 1011.6
20260906053613 65 24 0.0 3.0 0.00 0.00 0.00 89 1011.6
20260906053418 65 24 1.0 3.0 0.00 0.00 0.00 89 1011.5
20260906053113 65 24 2.0 3.0 0.00 0.00 0.00 90 1011.6
20260906052916 65 24 2.0 3.0 0.00 0.00 0.00 90 1011.5
20260906052616 65 24 1.0 4.0 0.00 0.00 0.00 91 1011.6
20260906052421 65 24 1.0 4.0 0.00 0.00 0.00 90 1011.6
20260906052137 65 24 1.0 4.0 0.00 0.00 0.00 90 1011.6
20260906051927 65 24 2.0 4.0 0.00 0.00 0.00 90 1011.6
20260906051620 65 24 2.0 3.0 0.00 0.00 0.00 90 1011.6
20260906051405 65 24 2.0 3.0 0.00 0.00 0.00 90 1011.7
20260906051146 65 24 1.0 3.0 0.00 0.00 0.00 90 1011.6
20260906050910 65 24 2.0 3.0 0.00 0.00 0.00 90 1011.7
20260906050603 65 24 2.0 3.0 0.00 0.00 0.00 89 1011.7
20260906050424 65 24 2.0 3.0 0.00 0.00 0.00 89 1011.7
20260906050108 65 24 1.0 2.0 0.00 0.00 0.00 89 1011.7
20260906045907 65 24 1.0 2.0 0.00 0.00 0.00 89 1011.7
20260906045604 65 24 1.0 2.0 0.00 0.00 0.00 89 1011.7
20260906045434 66 24 1.0 2.0 0.00 0.00 0.00 89 1011.7
20260906045110 66 24 0.0 1.0 0.00 0.00 0.00 89 1011.7
20260906044909 66 24 0.0 1.0 0.00 0.00 0.00 89 1011.7
20260906044608 66 24 1.0 1.0 0.00 0.00 0.00 89 1011.6
20260906044407 66 24 0.0 1.0 0.00 0.00 0.00 88 1011.6
20260906044105 66 24 0.0 1.0 0.00 0.00 0.00 88 1011.6
20260906043912 66 24 0.0 1.0 0.00 0.00 0.00 88 1011.6
20260906043610 66 24 0.0 1.0 0.00 0.00 0.00 88 1011.6
20260906043411 66 24 0.0 1.0 0.00 0.00 0.00 88 1011.6
20260906043108 66 24 0.0 2.0 0.00 0.00 0.00 88 1011.5
20260906042909 66 24 0.0 2.0 0.00 0.00 0.00 88 1011.4
20260906042634 66 24 1.0 2.0 0.00 0.00 0.00 88 1011.5
20260906042413 66 24 1.0 2.0 0.00 0.00 0.00 88 1011.5
20260906042109 66 24 1.0 2.0 0.00 0.00 0.00 87 1011.5
20260906041916 67 24 1.0 2.0 0.00 0.00 0.00 87 1011.5
20260906041615 67 24 1.0 3.0 0.00 0.00 0.00 87 1011.5
20260906041444 67 24 1.0 3.0 0.00 0.00 0.00 87 1011.5
20260906041120 67 24 1.0 4.0 0.00 0.00 0.00 87 1011.4
20260906040920 67 24 2.0 4.0 0.00 0.00 0.00 87 1011.5
20260906040618 67 24 2.0 4.0 0.00 0.00 0.00 86 1011.4
20260906040446 67 24 2.0 4.0 0.00 0.00 0.00 86 1011.5
20260906040123 67 24 2.0 3.0 0.00 0.00 0.00 86 1011.4
20260906035903 67 24 2.0 3.0 0.00 0.00 0.00 86 1011.4
20260906035622 67 24 1.0 2.0 0.00 0.00 0.00 87 1011.5
20260906035422 67 24 1.0 2.0 0.00 0.00 0.00 86 1011.6
20260906035127 67 24 1.0 2.0 0.00 0.00 0.00 86 1011.5
20260906034927 67 24 1.0 2.0 0.00 0.00 0.00 86 1011.6
20260906034606 67 24 1.0 3.0 0.00 0.00 0.00 85 1011.5
20260906034406 67 24 2.0 3.0 0.00 0.00 0.00 84 1011.5
20260906034103 68 24 2.0 3.0 0.00 0.00 0.00 84 1011.4
20260906033904 68 24 2.0 3.0 0.00 0.00 0.00 84 1011.3
20260906033628 68 24 2.0 5.0 0.00 0.00 0.00 84 1011.3
20260906033409 68 24 2.0 5.0 0.00 0.00 0.00 83 1011.3
20260906033108 68 24 2.0 5.0 0.00 0.00 0.00 83 1011.3
20260906032909 68 27 2.0 4.0 0.00 0.00 0.00 83 1011.3
20260906032608 68 27 3.0 4.0 0.00 0.00 0.00 84 1011.3
20260906032407 68 28 2.0 4.0 0.00 0.00 0.00 84 1011.2
20260906032112 68 28 2.0 4.0 0.00 0.00 0.00 84 1011.2
20260906031913 68 28 2.0 3.0 0.00 0.00 0.00 84 1011.2
20260906031638 68 28 2.0 3.0 0.00 0.00 0.00 85 1011.1
20260906031417 68 28 2.0 3.0 0.00 0.00 0.00 85 1011.0
20260906031116 68 28 1.0 3.0 0.00 0.00 0.00 85 1011.1
20260906030938 68 28 1.0 3.0 0.00 0.00 0.00 85 1011.0
20260906030621 68 28 1.0 3.0 0.00 0.00 0.00 85 1011.1
20260906030403 68 28 1.0 3.0 0.00 0.00 0.00 85 1011.1
20260906030142 68 28 1.0 2.0 0.00 0.00 0.00 84 1011.1
20260906025928 68 28 1.0 2.0 0.00 0.00 0.00 84 1011.1
20260906025626 68 28 0.0 2.0 0.00 0.00 0.00 84 1011.2
20260906025428 69 28 1.0 4.0 0.00 0.00 0.00 83 1011.2
20260906025106 69 28 1.0 4.0 0.00 0.00 0.00 83 1011.1
20260906024906 69 28 2.0 4.0 0.00 0.00 0.00 83 1011.1
20260906024610 69 28 3.0 4.0 0.00 0.00 0.00 84 1011.1
20260906024411 68 28 3.0 3.0 0.00 0.00 0.00 84 1011.1
20260906024110 68 28 2.0 3.0 0.00 0.00 0.00 85 1011.1
20260906023911 68 28 2.0 3.0 0.00 0.00 0.00 84 1011.1
20260906023636 68 28 2.0 4.0 0.00 0.00 0.00 85 1011.1
20260906023416 68 28 1.0 4.0 0.00 0.00 0.00 85 1011.1
20260906023114 68 28 1.0 4.0 0.00 0.00 0.00 86 1011.0
20260906022916 68 28 2.0 4.0 0.00 0.00 0.00 86 1011.0
20260906022621 68 28 1.0 3.0 0.00 0.00 0.00 86 1011.1
20260906022421 68 28 1.0 3.0 0.00 0.00 0.00 86 1011.1
20260906022119 68 28 1.0 2.0 0.00 0.00 0.00 86 1011.1
20260906021941 68 28 1.0 1.0 0.00 0.00 0.00 86 1011.1
20260906021605 68 28 0.0 2.0 0.00 0.00 0.00 86 1011.2
20260906021405 68 28 0.0 2.0 0.00 0.00 0.00 86 1011.2
20260906021118 68 28 0.0 2.0 0.00 0.00 0.00 86 1011.1
20260906020922 68 28 1.0 2.0 0.00 0.00 0.00 85 1011.1
20260906020623 69 28 1.0 2.0 0.00 0.00 0.00 86 1011.1
20260906020426 69 28 0.0 1.0 0.00 0.00 0.00 85 1011.0
20260906020141 69 28 0.0 2.0 0.00 0.00 0.00 85 1011.0
20260906015932 69 28 0.0 2.0 0.00 0.00 0.00 85 1011.0
20260906015625 69 28 1.0 2.0 0.00 0.00 0.00 85 1011.0
20260906015408 69 28 1.0 2.0 0.00 0.00 0.00 85 1011.1
20260906015111 69 28 1.0 1.0 0.00 0.00 0.00 85 1011.1
20260906014935 69 28 0.0 1.0 0.00 0.00 0.00 85 1011.0
20260906014635 70 28 1.0 1.0 0.00 0.00 0.00 85 1011.0
20260906014419 70 28 0.0 2.0 0.00 0.00 0.00 85 1011.0
20260906014114 70 28 0.0 3.0 0.00 0.00 0.00 85 1011.0
20260906013919 70 28 0.0 3.0 0.00 0.00 0.00 85 1011.0
20260906013640 70 28 1.0 4.0 0.00 0.00 0.00 85 1011.0
20260906013404 70 28 1.0 4.0 0.00 0.00 0.00 86 1011.0
20260906013118 70 28 2.0 4.0 0.00 0.00 0.00 86 1010.9
20260906012945 70 28 2.0 4.0 0.00 0.00 0.00 86 1010.9
20260906012622 70 28 1.0 3.0 0.00 0.00 0.00 86 1010.9
20260906012403 70 28 2.0 3.0 0.00 0.00 0.00 85 1010.8
20260906012122 70 28 2.0 3.0 0.00 0.00 0.00 85 1010.8
20260906011922 70 28 2.0 3.0 0.00 0.00 0.00 85 1010.8
20260906011606 70 28 2.0 4.0 0.00 0.00 0.00 85 1010.9
20260906011406 70 28 2.0 4.0 0.00 0.00 0.00 85 1010.9
20260906011104 70 28 2.0 4.0 0.00 0.00 0.00 84 1010.8
20260906010904 70 28 3.0 4.0 0.00 0.00 0.00 84 1010.8
20260906010629 70 28 2.0 4.0 0.00 0.00 0.00 83 1010.7
20260906010430 70 28 2.0 2.0 0.00 0.00 0.00 82 1010.7
20260906010107 70 28 1.0 2.0 0.00 0.00 0.00 82 1010.6
20260906005913 70 28 1.0 2.0 0.00 0.00 0.00 82 1010.5
20260906005611 71 28 2.0 3.0 0.00 0.00 0.00 81 1010.5
20260906005433 71 28 1.0 3.0 0.00 0.00 0.00 81 1010.4
20260906005117 71 28 1.0 3.0 0.00 0.00 0.00 80 1010.4
20260906004917 71 28 2.0 3.0 0.00 0.00 0.00 80 1010.4
20260906004615 71 28 1.0 2.0 0.00 0.00 0.00 80 1010.4
20260906004415 71 28 1.0 2.0 0.00 0.00 0.00 80 1010.4
20260906004112 71 28 0.0 2.0 0.00 0.00 0.00 80 1010.4
20260906003920 71 28 0.0 3.0 0.00 0.00 0.00 80 1010.3
20260906003617 72 28 1.0 3.0 0.00 0.00 0.00 79 1010.4
20260906003418 72 28 1.0 3.0 0.00 0.00 0.00 79 1010.4
20260906003116 72 28 1.0 4.0 0.00 0.00 0.00 79 1010.2
20260906002944 72 28 1.0 4.0 0.00 0.00 0.00 79 1010.2
20260906002621 72 28 2.0 4.0 0.00 0.00 0.00 80 1010.2
20260906002422 72 28 2.0 4.0 0.00 0.00 0.00 80 1010.1
20260906002120 72 29 2.0 4.0 0.00 0.00 0.00 80 1010.2
20260906001920 72 29 1.0 3.0 0.00 0.00 0.00 81 1010.2
20260906001607 72 29 1.0 4.0 0.00 0.00 0.00 82 1010.2
20260906001427 71 29 1.0 4.0 0.00 0.00 0.00 82 1010.2
20260906001130 71 29 1.0 4.0 0.00 0.00 0.00 81 1010.2
20260906000930 71 29 2.0 4.0 0.00 0.00 0.00 81 1010.1
20260906000607 72 29 1.0 2.0 0.00 0.00 0.00 81 1010.0
20260906000414 72 29 0.0 2.0 0.00 0.00 0.00 81 1010.0
20260906000112 72 29 1.0 2.0 0.00 0.00 0.00 80 1010.0
20260905235912 72 29 0.0 1.0 0.00 0.00 0.00 80 1010.0
20260905235611 72 29 0.0 2.0 0.00 0.00 0.00 80 1010.0
20260905235412 72 29 0.0 2.0 0.00 0.00 0.00 79 1009.9
20260905235116 73 29 0.0 2.0 0.00 0.00 0.00 79 1009.9
20260905234917 73 29 1.0 2.0 0.00 0.00 0.00 78 1009.8
20260905234616 73 29 1.0 3.0 0.00 0.00 0.00 78 1009.7
20260905234416 73 29 1.0 3.0 0.00 0.00 0.00 78 1009.7
20260905234114 73 29 1.0 3.0 0.00 0.00 0.00 78 1009.7
20260905233922 73 29 1.0 3.0 0.00 0.00 0.00 78 1009.7
20260905233619 73 29 1.0 2.0 0.00 0.00 0.00 78 1009.7
20260905233421 73 29 0.0 2.0 0.00 0.00 0.00 77 1009.7
20260905233118 73 29 0.0 2.0 0.00 0.00 0.00 77 1009.7
20260905232918 74 29 1.0 2.0 0.00 0.00 0.00 77 1009.6
20260905232624 74 29 0.0 1.0 0.00 0.00 0.00 76 1009.7
20260905232423 74 29 0.0 1.0 0.00 0.00 0.00 76 1009.7
20260905232122 74 29 0.0 1.0 0.00 0.00 0.00 76 1009.7
20260905231923 74 29 0.0 1.0 0.00 0.00 0.00 75 1009.7
20260905231620 75 29 1.0 1.0 0.00 0.00 0.00 75 1009.8
20260905231427 75 29 0.0 1.0 0.00 0.00 0.00 75 1009.8
20260905231106 75 29 0.0 1.0 0.00 0.00 0.00 74 1009.8
20260905230907 75 29 0.0 1.0 0.00 0.00 0.00 73 1009.8
20260905230625 75 29 0.0 2.0 0.00 0.00 0.00 73 1009.8
20260905230405 75 29 0.0 4.0 0.00 0.00 0.00 73 1009.8
20260905230109 75 29 1.0 4.0 0.00 0.00 0.00 72 1009.7
20260905225930 75 29 1.0 4.0 0.00 0.00 0.00 72 1009.6
20260905225607 76 29 2.0 4.0 0.00 0.00 0.00 72 1009.6
20260905225435 76 30 2.0 4.0 0.00 0.00 0.00 71 1009.7
20260905225108 76 30 2.0 4.0 0.00 0.00 0.00 70 1009.7
20260905224913 76 30 1.0 4.0 0.00 0.00 0.00 70 1009.7
20260905224615 76 30 2.0 4.0 0.00 0.00 0.00 70 1009.7
20260905224418 76 30 2.0 4.0 0.00 0.00 0.00 70 1009.6
20260905224112 76 32 1.0 4.0 0.00 0.00 0.00 70 1009.6
20260905223917 76 32 2.0 4.0 0.00 0.00 0.00 70 1009.5
20260905223611 76 55 2.0 4.0 0.00 0.00 0.00 69 1009.5
20260905223422 76 55 2.0 4.0 0.00 0.00 0.00 69 1009.5
20260905223116 77 55 3.0 4.0 0.00 0.00 0.00 68 1009.4
20260905222921 77 56 2.0 5.0 0.00 0.00 0.00 68 1009.4
20260905222615 77 56 2.0 5.0 0.00 0.00 0.00 68 1009.4
20260905222419 77 56 2.0 5.0 0.00 0.00 0.00 68 1009.4
20260905222114 77 25 2.0 4.0 0.00 0.00 0.00 69 1009.4
20260905221926 77 13 2.0 4.0 0.00 0.00 0.00 69 1009.3
20260905221619 77 13 2.0 4.0 0.00 0.00 0.00 69 1009.3
20260905221404 77 3 2.0 4.0 0.00 0.00 0.00 69 1009.3
20260905221125 77 9 1.0 3.0 0.00 0.00 0.00 69 1009.3
20260905220909 77 9 2.0 4.0 0.00 0.00 0.00 69 1009.3
20260905220603 77 10 1.0 4.0 0.00 0.00 0.00 68 1009.3
20260905220408 77 10 2.0 4.0 0.00 0.00 0.00 68 1009.3
20260905220129 77 7 1.0 3.0 0.00 0.00 0.00 68 1009.4
20260905215934 77 7 1.0 3.0 0.00 0.00 0.00 69 1009.3
20260905215607 77 7 2.0 3.0 0.00 0.00 0.00 67 1009.4
20260905215439 77 7 2.0 3.0 0.00 0.00 0.00 67 1009.3
20260905215113 77 6 0.0 3.0 0.00 0.00 0.00 66 1009.2
20260905214918 77 6 2.0 4.0 0.00 0.00 0.00 65 1009.2
20260905214620 78 6 1.0 4.0 0.00 0.00 0.00 65 1009.1
20260905214424 78 6 2.0 4.0 0.00 0.00 0.00 65 1009.1
20260905214117 78 4 2.0 3.0 0.00 0.00 0.00 64 1009.1
20260905213927 78 4 0.0 2.0 0.00 0.00 0.00 65 1009.1
20260905213621 78 4 0.0 3.0 0.00 0.00 0.00 64 1009.1
20260905213406 78 4 1.0 3.0 0.00 0.00 0.00 64 1009.0
20260905213121 78 4 1.0 3.0 0.00 0.00 0.00 63 1009.0
20260905212906 79 4 2.0 3.0 0.00 0.00 0.00 62 1009.0
20260905212620 79 4 2.0 3.0 0.00 0.00 0.00 62 1009.1
20260905212405 79 2 1.0 3.0 0.00 0.00 0.00 64 1009.2
20260905212125 78 2 1.0 2.0 0.00 0.00 0.00 64 1009.2
20260905211910 78 2 1.0 3.0 0.00 0.00 0.00 64 1009.1
20260905211605 78 2 0.0 3.0 0.00 0.00 0.00 64 1009.1
20260905211436 78 2 0.0 3.0 0.00 0.00 0.00 64 1009.0
20260905211108 78 2 1.0 2.0 0.00 0.00 0.00 63 1009.0
20260905210913 78 2 1.0 3.0 0.00 0.00 0.00 65 1008.9
20260905210608 78 2 0.0 3.0 0.00 0.00 0.00 64 1008.9
20260905210412 77 2 1.0 3.0 0.00 0.00 0.00 63 1009.0
20260905210113 77 2 2.0 3.0 0.00 0.00 0.00 63 1009.0
20260905205918 78 360 2.0 3.0 0.00 0.00 0.00 63 1009.0
20260905205634 78 360 2.0 3.0 0.00 0.00 0.00 63 1009.0
20260905205420 78 360 1.0 3.0 0.00 0.00 0.00 62 1009.0
20260905205118 78 360 2.0 3.0 0.00 0.00 0.00 61 1009.0
20260905204919 78 360 1.0 2.0 0.00 0.00 0.00 62 1009.1
20260905204617 78 360 1.0 4.0 0.00 0.00 0.00 62 1009.0
20260905204445 78 360 1.0 4.0 0.00 0.00 0.00 63 1009.0
20260905204120 78 360 2.0 5.0 0.00 0.00 0.00 63 1008.9
20260905203921 78 360 1.0 5.0 0.00 0.00 0.00 62 1008.9
20260905203616 77 360 2.0 8.0 0.00 0.00 0.00 63 1008.9
20260905203417 78 360 3.0 8.0 0.00 0.00 0.00 62 1009.0
20260905203121 78 356 2.0 8.0 0.00 0.00 0.00 63 1009.0
20260905202923 78 356 3.0 8.0 0.00 0.00 0.00 62 1008.8
20260905202642 78 4 2.0 4.0 0.00 0.00 0.00 63 1008.9
20260905202428 79 356 2.0 5.0 0.00 0.00 0.00 62 1008.9
20260905202127 78 356 2.0 8.0 0.00 0.00 0.00 65 1008.8
20260905201907 78 356 1.0 8.0 0.00 0.00 0.00 65 1008.8
20260905201606 78 356 2.0 8.0 0.00 0.00 0.00 64 1008.8
20260905201413 78 356 3.0 8.0 0.00 0.00 0.00 63 1008.9
20260905201111 79 356 3.0 6.0 0.00 0.00 0.00 63 1008.8
20260905200912 79 356 2.0 4.0 0.00 0.00 0.00 62 1008.8
20260905200609 79 356 1.0 5.0 0.00 0.00 0.00 61 1008.8
20260905200438 79 356 1.0 5.0 0.00 0.00 0.00 60 1008.8
20260905200114 79 356 2.0 5.0 0.00 0.00 0.00 60 1008.8
20260905195915 79 356 3.0 5.0 0.00 0.00 0.00 61 1008.8
20260905195614 79 356 1.0 5.0 0.00 0.00 0.00 60 1008.9
20260905195422 79 356 1.0 5.0 0.00 0.00 0.00 59 1008.8
20260905195119 80 1 3.0 5.0 0.00 0.00 0.00 58 1008.9
20260905194941 80 28 2.0 5.0 0.00 0.00 0.00 59 1008.9
20260905194645 81 29 3.0 5.0 0.00 0.00 0.00 57 1008.9
20260905194404 81 43 3.0 5.0 0.00 0.00 0.00 59 1008.9
20260905194150 81 4 3.0 6.0 0.00 0.00 0.00 60 1008.8
20260905193931 81 8 2.0 6.0 0.00 0.00 0.00 59 1008.8
20260905193608 81 8 2.0 6.0 0.00 0.00 0.00 58 1008.8
20260905193409 81 19 4.0 6.0 0.00 0.00 0.00 58 1008.8
20260905193108 82 2 2.0 5.0 0.00 0.00 0.00 58 1008.8
20260905192915 82 2 3.0 5.0 0.00 0.00 0.00 59 1008.8
20260905192613 81 21 2.0 10.0 0.00 0.00 0.00 62 1008.8
20260905192414 81 21 2.0 10.0 0.00 0.00 0.00 61 1008.8
20260905192112 81 69 4.0 10.0 0.00 0.00 0.00 59 1008.8
20260905191913 81 19 5.0 10.0 0.00 0.00 0.00 59 1008.8
20260905191618 82 19 2.0 8.0 0.00 0.00 0.00 58 1008.8
20260905191418 82 65 3.0 8.0 0.00 0.00 0.00 61 1008.9
20260905191116 82 8 3.0 6.0 0.00 0.00 0.00 57 1008.8
20260905190917 82 6 2.0 6.0 0.00 0.00 0.00 58 1008.8
20260905190615 82 5 1.0 6.0 0.00 0.00 0.00 55 1008.8
20260905190422 81 7 2.0 6.0 0.00 0.00 0.00 56 1008.9
20260905190121 82 8 2.0 6.0 0.00 0.00 0.00 58 1009.0
20260905185922 82 3 2.0 6.0 0.00 0.00 0.00 57 1008.9
20260905185620 82 346 1.0 4.0 0.00 0.00 0.00 58 1008.9
20260905185421 81 346 2.0 5.0 0.00 0.00 0.00 58 1008.9
20260905185126 81 351 2.0 5.0 0.00 0.00 0.00 60 1009.0
20260905184926 80 1 1.0 5.0 0.00 0.00 0.00 58 1009.0
20260905184623 80 16 3.0 5.0 0.00 0.00 0.00 61 1009.0
20260905184424 79 29 3.0 5.0 0.00 0.00 0.00 63 1009.0
20260905184128 78 356 3.0 5.0 0.00 0.00 0.00 64 1009.0
20260905183908 78 356 2.0 5.0 0.00 0.00 0.00 65 1009.1
20260905183606 78 356 3.0 5.0 0.00 0.00 0.00 63 1009.1
20260905183407 78 356 3.0 5.0 0.00 0.00 0.00 62 1009.1
20260905183105 78 4 3.0 5.0 0.00 0.00 0.00 63 1009.1
20260905182905 79 3 1.0 2.0 0.00 0.00 0.00 62 1009.1
20260905182609 79 3 0.0 3.0 0.00 0.00 0.00 62 1009.1
20260905182410 78 3 1.0 3.0 0.00 0.00 0.00 62 1009.1
20260905182130 78 3 1.0 4.0 0.00 0.00 0.00 63 1009.1
20260905181917 78 3 1.0 4.0 0.00 0.00 0.00 61 1009.1
20260905181614 79 3 2.0 4.0 0.00 0.00 0.00 61 1009.1
20260905181415 79 3 2.0 5.0 0.00 0.00 0.00 60 1009.1
20260905181113 79 4 2.0 5.0 0.00 0.00 0.00 61 1009.1
20260905180941 79 4 2.0 5.0 0.00 0.00 0.00 61 1009.1
20260905180614 79 351 2.0 5.0 0.00 0.00 0.00 59 1009.2
20260905180419 79 356 1.0 5.0 0.00 0.00 0.00 59 1009.2
20260905180114 79 356 1.0 6.0 0.00 0.00 0.00 59 1009.2
20260905175924 79 356 2.0 6.0 0.00 0.00 0.00 60 1009.2
20260905175618 79 4 3.0 9.0 0.00 0.00 0.00 59 1009.2
20260905175423 79 3 4.0 9.0 0.00 0.00 0.00 60 1009.3
20260905175116 79 56 3.0 9.0 0.00 0.00 0.00 61 1009.2
20260905174921 78 21 4.0 9.0 0.00 0.00 0.00 62 1009.3
20260905174623 78 50 2.0 4.0 0.00 0.00 0.00 62 1009.4
20260905174427 78 50 2.0 5.0 0.00 0.00 0.00 64 1009.4
20260905174142 78 52 1.0 5.0 0.00 0.00 0.00 64 1009.4
20260905173933 78 52 0.0 5.0 0.00 0.00 0.00 62 1009.3
20260905173607 78 52 3.0 6.0 0.00 0.00 0.00 62 1009.4
20260905173412 78 11 2.0 6.0 0.00 0.00 0.00 62 1009.4
20260905173106 78 23 3.0 6.0 0.00 0.00 0.00 62 1009.4
20260905172911 78 25 4.0 6.0 0.00 0.00 0.00 61 1009.4
20260905172631 79 23 2.0 6.0 0.00 0.00 0.00 62 1009.4
20260905172415 79 23 3.0 6.0 0.00 0.00 0.00 61 1009.4
20260905172110 79 351 2.0 5.0 0.00 0.00 0.00 60 1009.4
20260905171915 79 87 2.0 5.0 0.00 0.00 0.00 60 1009.5
20260905171636 79 356 2.0 6.0 0.00 0.00 0.00 61 1009.5
20260905171420 79 60 1.0 6.0 0.00 0.00 0.00 62 1009.5
20260905171120 79 60 2.0 10.0 0.00 0.00 0.00 60 1009.5
20260905170906 79 58 4.0 10.0 0.00 0.00 0.00 61 1009.6
20260905170619 79 21 5.0 10.0 0.00 0.00 0.00 61 1009.5
20260905170403 79 42 4.0 11.0 0.00 0.00 0.00 63 1009.5
20260905170145 79 56 4.0 11.0 0.00 0.00 0.00 60 1009.6
20260905165909 79 62 3.0 11.0 0.00 0.00 0.00 62 1009.6
20260905165604 79 25 5.0 11.0 0.00 0.00 0.00 63 1009.7
20260905165409 79 40 2.0 8.0 0.00 0.00 0.00 61 1009.6
20260905165131 79 48 3.0 8.0 0.00 0.00 0.00 63 1009.6
20260905164907 79 46 3.0 8.0 0.00 0.00 0.00 63 1009.6
20260905164627 78 28 1.0 9.0 0.00 0.00 0.00 63 1009.6
20260905164411 78 28 3.0 9.0 0.00 0.00 0.00 65 1009.7
20260905164106 78 61 4.0 9.0 0.00 0.00 0.00 63 1009.7
20260905163917 78 346 3.0 8.0 0.00 0.00 0.00 63 1009.7
20260905163611 78 356 1.0 6.0 0.00 0.00 0.00 65 1009.8
20260905163416 78 356 1.0 6.0 0.00 0.00 0.00 65 1009.8
20260905163109 78 346 3.0 6.0 0.00 0.00 0.00 63 1009.8
20260905162914 78 4 2.0 7.0 0.00 0.00 0.00 63 1009.8
20260905162609 78 47 3.0 5.0 0.00 0.00 0.00 63 1009.8
20260905162419 78 52 3.0 5.0 0.00 0.00 0.00 65 1009.8
20260905162113 78 20 1.0 5.0 0.00 0.00 0.00 65 1009.7
20260905161918 78 20 3.0 6.0 0.00 0.00 0.00 63 1009.8
20260905161612 78 24 2.0 10.0 0.00 0.00 0.00 62 1009.7
20260905161423 78 39 2.0 10.0 0.00 0.00 0.00 64 1009.8
20260905161118 78 15 4.0 10.0 0.00 0.00 0.00 64 1009.7
20260905160922 78 13 2.0 10.0 0.00 0.00 0.00 65 1009.6
20260905160615 77 351 2.0 10.0 0.00 0.00 0.00 66 1009.7
20260905160420 77 6 4.0 10.0 0.00 0.00 0.00 66 1009.8
20260905160121 76 48 4.0 10.0 0.00 0.00 0.00 65 1009.8
20260905155908 76 4 3.0 10.0 0.00 0.00 0.00 65 1009.7
20260905155620 76 6 4.0 10.0 0.00 0.00 0.00 65 1009.7
20260905155404 76 7 4.0 9.0 0.00 0.00 0.00 67 1009.7
20260905155118 76 356 4.0 6.0 0.00 0.00 0.00 66 1009.7
20260905154929 76 351 2.0 5.0 0.00 0.00 0.00 68 1009.7
20260905154623 75 346 2.0 6.0 0.00 0.00 0.00 70 1009.8
20260905154407 75 4 1.0 6.0 0.00 0.00 0.00 69 1009.7
20260905154122 75 4 4.0 6.0 0.00 0.00 0.00 68 1009.7
20260905153927 75 13 3.0 6.0 0.00 0.00 0.00 69 1009.7
20260905153627 75 42 4.0 11.0 0.00 0.00 0.00 68 1009.7
20260905153427 75 42 4.0 11.0 0.00 0.00 0.00 68 1009.7
20260905153110 75 45 4.0 11.0 0.00 0.00 0.00 68 1009.8
20260905152911 75 360 6.0 11.0 0.00 0.00 0.00 67 1009.9
20260905152610 75 346 4.0 10.0 0.00 0.00 0.00 70 1009.8
20260905152411 75 16 5.0 10.0 0.00 0.00 0.00 69 1009.8
20260905152108 75 42 2.0 8.0 0.00 0.00 0.00 70 1009.8
20260905151936 75 44 3.0 9.0 0.00 0.00 0.00 69 1009.8
20260905151613 75 10 3.0 9.0 0.00 0.00 0.00 70 1009.8
20260905151440 75 2 3.0 9.0 0.00 0.00 0.00 70 1009.8
20260905151117 75 8 4.0 10.0 0.00 0.00 0.00 71 1009.8
20260905150944 74 65 2.0 10.0 0.00 0.00 0.00 71 1009.7
20260905150622 74 5 3.0 10.0 0.00 0.00 0.00 70 1009.8
20260905150423 74 18 4.0 10.0 0.00 0.00 0.00 70 1009.8
20260905150121 74 8 5.0 9.0 0.00 0.00 0.00 70 1009.8
20260905145921 74 10 3.0 8.0 0.00 0.00 0.00 71 1009.8
20260905145626 74 2 3.0 10.0 0.00 0.00 0.00 71 1009.8
20260905145427 75 4 3.0 10.0 0.00 0.00 0.00 72 1009.9
20260905145150 74 3 1.0 10.0 0.00 0.00 0.00 72 1009.8
20260905144910 74 15 4.0 10.0 0.00 0.01 0.00 71 1009.9
20260905144608 74 21 4.0 8.0 0.00 0.01 0.00 71 1009.9
20260905144409 74 356 4.0 9.0 0.00 0.01 0.00 72 1010.0
20260905144135 74 12 3.0 9.0 0.00 0.01 0.00 72 1009.9
20260905143915 74 50 5.0 9.0 0.00 0.01 0.00 71 1009.9
20260905143612 74 331 4.0 9.0 0.00 0.01 0.00 72 1009.9